User: anonymous   Login
Location: Rumah Apan
(2.7833°N, 113.9500°E)
Time: 15:29:46
(UTC+00:00)
Language:

Okean-O - Orbit

View from above orbital plane
View from above orbital plane
View from above satellite
View from above satellite

Ground track
Ground track

The orbit data is extracted from the following two-line orbital elements,

1 25860U 99039A   21298.08228166  .00000082  00000-0  19269-4 0  9997
2 25860  98.1714 330.5291 0001873  90.3165 269.8259 14.76772465198603
Epoch (UTC): 25 October 2021 01:58:29
Eccentricity: 0.0001873
inclination: 98.1714°
perigee height: 638 km
apogee height: 641 km
right ascension of ascending node: 330.5291°
argument of perigee: 90.3165°
revolutions per day: 14.76772465
mean anomaly at epoch: 269.8259°
orbit number at epoch: 19860

The dashed part of the orbit path shows where the satellite is in the earth's shadow,  

DLR